2023/08/01 00:00:00, 0.0,23.3
2023/08/01 00:10:00, 0.0,23.5
2023/08/01 00:20:00, 0.0,23.3
2023/08/01 00:30:00, 0.0,22.5
2023/08/01 00:40:00, 0.0,23.0
2023/08/01 00:50:00, 0.0,21.8
2023/08/01 01:00:00, 0.0,21.4
2023/08/01 01:10:00, 0.0,21.4
2023/08/01 01:20:00, 0.0,21.2
2023/08/01 01:30:00, 0.0,20.9
2023/08/01 01:40:00, 0.0,20.5
2023/08/01 01:50:00, 0.0,20.5
2023/08/01 02:00:00, 0.0,20.5
2023/08/01 02:10:00, 0.0,20.8
2023/08/01 02:20:00, 0.0,20.8
2023/08/01 02:30:00, 0.0,21.0
2023/08/01 02:40:00, 0.0,20.8
2023/08/01 02:50:00, 0.0,20.6
2023/08/01 03:00:00, 0.6,20.6
2023/08/01 03:10:00, 0.5,20.5
2023/08/01 03:20:00, 0.0,20.4
2023/08/01 03:30:00, 0.0,20.3
2023/08/01 03:40:00, 0.0,20.4
2023/08/01 03:50:00, 0.0,20.2
2023/08/01 04:00:00, 0.0,20.4
2023/08/01 04:10:00, 0.0,20.1
2023/08/01 04:20:00, 0.0,19.9
2023/08/01 04:30:00, 0.0,19.9
2023/08/01 04:40:00, 0.0,19.7
2023/08/01 04:50:00, 0.0,20.4
2023/08/01 05:00:00, 0.0,20.2
2023/08/01 05:10:00, 0.0,20.4
2023/08/01 05:20:00, 0.0,20.4
2023/08/01 05:30:00, 0.0,20.5
2023/08/01 05:40:00, 0.0,20.6
2023/08/01 05:50:00, 0.0,20.9
2023/08/01 06:00:00, 0.0,20.8
2023/08/01 06:10:00, 0.0,20.8
2023/08/01 06:20:00, 0.0,21.0
2023/08/01 06:30:00,---,21.1
2023/08/01 06:40:00, 0.0,21.1
2023/08/01 06:50:00, 0.6,21.3
2023/08/01 07:00:00, 0.0,21.6
2023/08/01 07:10:00, 0.0,22.3
2023/08/01 07:20:00, 0.0,24.1
2023/08/01 07:30:00, 0.0,24.0
2023/08/01 07:40:00, 0.0,25.6
2023/08/01 07:50:00, 0.0,26.1
2023/08/01 08:00:00, 0.0,26.4
2023/08/01 08:10:00, 0.0,27.4
2023/08/01 08:20:00, 0.0,27.0
2023/08/01 08:30:00, 0.1,27.7
2023/08/01 08:40:00, 0.0,27.4
2023/08/01 08:50:00, 0.0,27.9
2023/08/01 09:00:00, 0.0,27.9
2023/08/01 09:10:00, 0.2,27.8
2023/08/01 09:20:00,---,28.2
2023/08/01 09:30:00,---,28.3
2023/08/01 09:40:00,---,28.2
2023/08/01 09:50:00, 0.0,28.2
2023/08/01 10:00:00, 0.0,28.6
2023/08/01 10:10:00, 0.0,28.6
2023/08/01 10:20:00, 0.0,28.8
2023/08/01 10:30:00, 0.0,28.9
2023/08/01 10:40:00, 0.0,29.3
2023/08/01 10:50:00, 0.0,29.2
2023/08/01 11:00:00,---,29.5
2023/08/01 11:10:00, 0.0,29.5
2023/08/01 11:20:00, 0.0,29.9
2023/08/01 11:30:00, 0.0,29.1
2023/08/01 11:40:00, 0.0,29.9
2023/08/01 11:50:00, 0.0,30.3
2023/08/01 12:00:00, 0.0,30.0
2023/08/01 12:10:00, 0.0,30.0
2023/08/01 12:20:00, 0.0,29.9
2023/08/01 12:30:00, 0.0,31.8
2023/08/01 12:40:00, 0.0,30.4
2023/08/01 12:50:00, 0.0,30.5
2023/08/01 13:00:00, 0.0,32.0
2023/08/01 13:10:00, 0.0,32.1
2023/08/01 13:20:00, 0.0,32.8
2023/08/01 13:30:00, 0.0,32.0
2023/08/01 13:40:00, 0.0,31.6
2023/08/01 13:50:00, 0.0,33.8
2023/08/01 14:00:00, 0.0,32.2
2023/08/01 14:10:00, 0.0,32.3
2023/08/01 14:20:00, 0.0,32.8
2023/08/01 14:30:00, 0.0,34.2
2023/08/01 14:40:00, 0.0,33.9
2023/08/01 14:50:00, 0.0,33.9
2023/08/01 15:00:00, 0.0,32.6
2023/08/01 15:10:00, 0.0,33.1
2023/08/01 15:20:00, 0.0,34.2
2023/08/01 15:30:00, 0.0,34.7
2023/08/01 15:40:00, 0.0,34.4
2023/08/01 15:50:00, 0.0,35.5
2023/08/01 16:00:00, 0.0,34.9
2023/08/01 16:10:00,---,36.0
2023/08/01 16:20:00,---,35.1
2023/08/01 16:30:00, 0.0,34.3
2023/08/01 16:40:00, 0.0,34.9
2023/08/01 16:50:00, 0.0,34.9
2023/08/01 17:00:00, 0.0,32.7
2023/08/01 17:10:00, 0.4,33.4
2023/08/01 17:20:00, 0.2,33.1
2023/08/01 17:30:00, 0.2,37.1
2023/08/01 17:40:00, 0.3,36.4
2023/08/01 17:50:00, 0.4,35.9
2023/08/01 18:00:00, 0.4,31.1
2023/08/01 18:10:00, 0.6,29.4
2023/08/01 18:20:00, 0.6,29.0
2023/08/01 18:30:00, 0.5,28.5
2023/08/01 18:40:00, 0.0,28.0
2023/08/01 18:50:00, 0.0,27.7
2023/08/01 19:00:00, 0.0,26.1
2023/08/01 19:10:00, 0.0,25.0
2023/08/01 19:20:00, 0.0,24.5
2023/08/01 19:30:00, 0.0,24.5
2023/08/01 19:40:00, 1.1,24.1
2023/08/01 19:50:00, 1.0,24.3
2023/08/01 20:00:00, 0.9,24.4
2023/08/01 20:10:00, 0.8,24.5
2023/08/01 20:20:00, 0.0,24.2
2023/08/01 20:30:00, 0.0,24.3
2023/08/01 20:40:00, 0.0,24.7
2023/08/01 20:50:00, 0.0,24.7
2023/08/01 21:00:00, 0.0,25.0
2023/08/01 21:10:00, 0.0,25.1
2023/08/01 21:20:00, 0.0,25.1
2023/08/01 21:30:00, 0.0,24.9
2023/08/01 21:40:00, 0.0,25.0
2023/08/01 21:50:00,---,25.0
2023/08/01 22:00:00,---,24.8
2023/08/01 22:10:00, 0.0,24.8
2023/08/01 22:20:00, 0.0,24.6
2023/08/01 22:30:00,---,24.6
2023/08/01 22:40:00,---,24.7
2023/08/01 22:50:00,---,24.3
2023/08/01 23:00:00,---,24.2
2023/08/01 23:10:00, 0.0,23.8
2023/08/01 23:20:00,---,24.5
2023/08/01 23:30:00,---,24.5
2023/08/01 23:40:00,---,24.6
2023/08/01 23:50:00,---,24.0
